Flag for Canada Weather past 2 weeks in Delta, British Columbia, Canada

Now
59 °F

Passing clouds.


Feels Like: 58 °F
Forecast: 58 / 67 °F
Wind: 6 mph from East

Location: Vancouver International Air-Port

Current Time: Sep 23, 2014 at 4:24:38 AM

Latest Report: Sep 23, 2014 at 4:00 AM


Visibility: 15 mi

Pressure: 29.87 "Hg

Humidity: 88%

Dew point: 55 °F

Location of DeltaLocation

Historic Weather in Delta — Graph

°F

Delta temperature yesterday

Maximum temperature yesterday: 70 °F (at 3:00 PM)
Minimum temperature yesterday: 61 °F (at 2:00 AM)
Average temperature yesterday: 63 °F

Past Weeks' High & Low Weather Summary

 TemperatureHumidityPressure
High75 °F (Sep 21, 5:00 PM)100% (Sep 18, 5:00 AM)30.35 "Hg (Sep 18, 5:00 AM)
Low46 °F (Sep 11, 5:00 AM)34% (Sep 11, 10:00 AM)29.71 "Hg (Sep 17, 6:00 PM)
Average61 °F78%29.96 "Hg
* Reported Sep 8 3:00 AM — Sep 23 3:00 AM, Delta, Weather by CustomWeather, © 2014

Note: Actual official high and low records may vary slightly from our data, if they occured in-between our weather recording intervals... More about our weather records

Advertising

Delta weather history for previous 24 hours

 ConditionsComfort  
Time TempWeatherWind HumidityBarometerVisibility
3:00 AM
Sep 23
63 °FOvercast.5 mph77%29.88 "Hg15 mi
2:00 AM61 °FOvercast.6 mph83%29.90 "Hg15 mi
1:00 AM61 °FMostly cloudy.3 mph83%29.90 "Hg15 mi
12:00 AM63 °FMostly cloudy.2 mph77%29.90 "Hg15 mi
11:00 PM
Sep 22
63 °FMostly cloudy.7 mph77%29.91 "Hg20 mi
10:00 PM63 °FMostly cloudy.8 mph77%29.92 "Hg20 mi
9:00 PM63 °FMostly cloudy.5 mph77%29.93 "Hg20 mi
8:00 PM63 °FBroken clouds.3 mph77%29.93 "Hg20 mi
7:00 PM64 °FBroken clouds.6 mph73%29.94 "Hg20 mi
6:00 PM66 °FScattered clouds.10 mph68%29.94 "Hg20 mi
5:00 PM66 °FPartly sunny.13 mph68%29.95 "Hg20 mi
4:00 PM68 °FPartly sunny.14 mph64%29.96 "Hg20 mi
3:00 PM70 °FBroken clouds.14 mph60%29.96 "Hg20 mi
2:00 PM68 °FBroken clouds.10 mph69%29.97 "Hg20 mi
1:00 PM66 °FPartly sunny.12 mph78%29.98 "Hg20 mi
12:00 PM63 °FBroken clouds.10 mph88%29.99 "Hg15 mi
11:00 AM63 °FCloudy.10 mph88%29.98 "Hg15 mi
10:51 AM63 °FMostly cloudy.9 mph83%29.98 "Hg15 mi
10:00 AM63 °FMostly cloudy.9 mph83%29.98 "Hg15 mi
9:00 AM61 °FBroken clouds.13 mph88%29.96 "Hg15 mi
8:00 AM63 °FScattered showers. Mostly cloudy.14 mph83%29.94 "Hg15 mi
7:46 AM63 °FMostly cloudy.14 mph83%29.93 "Hg15 mi
7:00 AM63 °FMostly cloudy.13 mph83%29.93 "Hg15 mi
6:00 AM63 °FOvercast.14 mph83%29.94 "Hg15 mi
5:00 AM61 °FMostly cloudy.13 mph88%29.93 "Hg15 mi
4:00 AM61 °FPartly cloudy.15 mph88%29.92 "Hg15 mi
Weather by CustomWeather, © 2014

See weather overviewHow to use our weather pages